Location: Unspecified
(0.0000°N, 0.0000°E)
Time: 10:31:16
(UTC+00:00)

NIMBUS 2 DEB - Pass Details

Date: 21 December 2025
Orbit: 956 x 1029 km, 100.4° (Epoch: 17 January)

Event Time Altitude Azimuth Distance (km) Brightness Sun altitude
Rises 03:58:59 0° 191° (S) 3,651 ? -27.1°
Reaches altitude 10° 04:01:54 10° 204° (SSW) 2,712 ? -26.4°
Enters shadow 04:04:21 19° 225° (SW) 2,115 ? -25.9°
